Location: Newark
(21.1200°N, 73.4000°E)
Time: 15:35:38
(UTC+00:00)

Explorer 11/Cluster Stage 4 - Pass Details

Date: 27 January 2020
Orbit: 467 x 1259 km, 28.8° (Epoch: 23 February)

Event Time Altitude Azimuth Distance (km) Brightness Sun altitude
Rises 04:25:42 0° 205° (SSW) 3,651 10.2 31.9°
Reaches altitude 10° 04:29:00 10° 189° (S) 2,843 9.9 32.5°
Maximum altitude 04:34:00 20° 144° (SE) 2,340 10.8 33.4°
Drops below altitude 10° 04:39:27 10° 101° (E) 3,155 10.6 34.3°
Sets 04:43:19 0° 86° (E) 4,178 10.8 35.0°
